Regional Weather Roundup
Issued by NWS Charleston, SC

Current Version | Previous Version | Graphics & Text | Print | Product List | Glossary On
Versions: 1 2 3 4 5 6 7 8 9 10 11 12 13 14 15 16 17 18 19 20 21 22 23 24 25 26 27 28 29 30 31 32 33 34 35 36 37 38 39 40 41 42 43 44 45 46 47 48 49 50
000
ASUS42 KCHS 301911
RWRCHS

REGIONAL WEATHER ROUNDUP
NATIONAL WEATHER SERVICE CHARLESTON SC
200 PM EST FRI JAN 30 2015

NOTE: "FAIR" INDICATES FEW OR NO CLOUDS BELOW 12,000 FEET WITH NO
SIGNIFICANT WEATHER AND/OR OBSTRUCTIONS TO VISIBILITY.

NOT ALL STATIONS ARE QUALITY CONTROLLED BY THE NATIONAL
WEATHER SERVICE. USE DATA WITH CAUTION...ESPECIALLY
DEWPOINT OBSERVATIONS.

SCZ027-030-031-034>040-042>050-302000-
...SOUTHEAST SOUTH CAROLINA...

CITY           SKY/WX    TMP DP  RH WIND       PRES   REMARKS
N CHARLESTON   MOSUNNY   58  28  32 NW20G29   30.12F
WATERFRONT PRK NOT AVBL
MOUNT PLEASANT FAIR      55  32  41 NW13G21   30.12S
PINOPOLIS        N/A     52  34  50 NW17      30.05S
MONCKS CORNER  FAIR      55  30  38 N14       30.13F
SUMMERVILLE    FAIR      55  32  41 NW10G20   30.14F
BEAUFORT MCAS  SUNNY     59  34  39 NW13      30.14F
BEAUFORT ARPT  FAIR      59  37  44 NW14G21   30.13F
HILTON HEAD IS SUNNY     59  36  41 N8G23     30.14F
WALTERBORO     CLEAR     59  19  21 W15G22    30.14F
ALLENDALE      FAIR      57  32  38 N9G23     30.15F

...SOUTHERN MIDLANDS AND PEE DEE...

CITY           SKY/WX    TMP DP  RH WIND       PRES   REMARKS
GEORGETOWN     NOT AVBL
KINGSTREE      NOT AVBL
ORANGEBURG     SUNNY     54  19  25 N14G28    30.16S
BARNWELL       FAIR      57  32  38 NW9G18    30.17F
AIKEN          FAIR      54  28  37 NW13      30.21F
MANNING        FAIR      55  23  28 NW13G23   30.14S
COLUMBIA       SUNNY     53  20  27 NW13G22   30.17F
SUMTER         SUNNY     54  23  30 NW9       30.13F
FLORENCE       SUNNY     53  21  28 NW22      30.13S
MYRTLE BEACH   MOSUNNY   54  25  32 NW17G29   30.10
N MYRTLE BEACH SUNNY     54  28  36 NW10G26   30.08S

$$

GAZ063-065-086>088-099>101-113>116-118-119-134>141-150-302000-
...SOUTHEAST GEORGIA...

CITY           SKY/WX    TMP DP  RH WIND       PRES   REMARKS
SAVANNAH ARPT  MOSUNNY   59  30  33 N15G23    30.15F
HUNTER AAF     SUNNY     60  33  36 NW15G23   30.12F
FORT STEWART   SUNNY     59  33  36 NW12G21   30.15F
STATESBORO     SUNNY     57  32  37 NW15G21   30.17F
SYLVANIA       CLEAR     57  32  39 NW13G23   30.17F
CLAXTON        FAIR      59  34  38 NW14G20   30.17F

...CSRA...CENTRAL AND FAR SOUTHEAST GEORGIA...

CITY           SKY/WX    TMP DP  RH WIND       PRES   REMARKS
THOMSON        SUNNY     55  29  36 W13       30.24F
AUGUSTA-BUSH   SUNNY     55  23  28 N15       30.19F
AUGUSTA-DANIEL SUNNY     55  22  27 NW13G22   30.19F
SWAINSBORO     FAIR      59   3  10 NW14G20   30.19F
VIDALIA        SUNNY     57  32  38 NW12G17   30.19F
EASTMAN        FAIR      57  29  33 NW7G18    30.24F
HAZLEHURST     FAIR      59  29  32 N10G16    30.19F
ALMA           SUNNY     58  27  30 NW15      30.19F
WAYCROSS       SUNNY     64  35  34 NW9G17    30.18F
JESUP          FAIR      61  34  36 NW7G18    30.17F
BAXLEY         FAIR      59  30  33 NW9G17    30.18F
BRUNSWICK      SUNNY     63  32  31 NW9       30.16F
SAINT SIMONS   SUNNY     61  32  33 NW12G22   30.15F

$$

SCZ027-028-034-036>038-045-046-048>050-GAZ119-141-302000-
...LAKE AND SUPPLEMENTAL COASTAL OBSERVATIONS...

STATION/POSITION TIME  TEMP    WIND        PRES    WAVE   SWELL
                       AIR SEA DIR/SP/G            HT/PER HT/PER/DIR
                 (UTC) (F)     (DEG/KT/KT) (MB)    (FT/S) (FT/S/D)
UPR LAKE MARION  NOT AVBL
WINYAH BAY       NOT AVBL
LAKE MURRAY      1800   48     290/ 10/ 15 1021.7F
ACE BASIN NERRS  1745   58     320/  5     1020.0
FORT PULASKI     1800   54 52  280/ 15/ 17 1021.2F
SAPELO ISLAND    1800   58     310/ 13     1021.0F

$$

ANZ835-935-AMZ111-154-330-350-352-354-370-450-454-472-302000-
...C-MAN AND BUOY OBSERVATIONS...

STATION/POSITION TIME  TEMP    WIND        PRES    WAVE   SWELL
                       AIR SEA DIR/SP/G            HT/PER HT/PER/DIR
                 (UTC) (F)     (DEG/KT/KT) (MB)    (FT/S) (FT/S/D)
BUOY 41004       1850   56 68  320/ 19/ 23 1018.3F   5/ 5   2/10
BUOY 41008       1850   54 54  330/ 14/ 17 1020.6F   3/ 4   2/ 60/11
FOLLY BEACH CMAN 1900   57     310/ 10/ 15 1020.1F
CAPERS NEARSHORE 1800   53     310/ 19/ 21   N/A
FRIPP NEARSHORE  1800   55     330/ 14/ 16 1020.0F


STATION/POSITION TIME  TEMP    WIND        PRES    WAVE   SWELL
                       AIR SEA DIR/SP/G            HT/PER HT/PER/DIR
                 (UTC) (F)     (DEG/KT/KT) (MB)    (FT/S) (FT/S/D)
5E ST. MARYS GA  1821      56                N/A     2/10
FRYING PAN BUOY  1850   51 63  320/ 19/ 25 1017.8S   6/ 5
BUOY 41025       1850   45 68  340/ 27/ 33 1014.3S   5/ 6   2/100/10
CAPE LOOKOUT NC  1800   47     350/ 17/ 22 1015.8F
BUOY 41002       1850   63 72  300/ 25/ 29 1012.0R  12/ 8
BUOY 41010       1820   69 74  270/ 21/ 25 1018.9F
ST AUGUSTINE FL  1900   65     330/ 14/ 15 1020.9F


$$


USA.gov is the U.S. government's official web portal to all federal, state and local government web resources and services.